Location: Kampong Paya Jaras Dalam
(3.1833°N, 101.5500°E)
Time: 05:34:41
(UTC+00:00)

Delta 198 - Pass Details

Date: 15 May 2026
Orbit: 449 x 913 km, 24.8° (Epoch: 7 June)

Event Time Altitude Azimuth Distance (km) Brightness Sun altitude
Exits shadow 21:38:01 23° 330° (NNW) 1,045 4.6 -20.6°
Maximum altitude 21:39:48 39° 24° (NNE) 711 4.2 -20.2°
Drops below altitude 10° 21:43:08 10° 95° (E) 1,568 6.6 -19.4°
Sets 21:45:21 0° 103° (ESE) 2,429 7.5 -18.9°
